Location: Cerezo de Arriba
(41.2389°N, 3.5585°W)
Time: 04:08:33
(UTC+00:00)

Cosmos-2242 - Pass Details

Date: 19 May 2025
Orbit: 569 x 594 km, 82.5° (Epoch: 23 June)

Event Time Altitude Azimuth Distance (km) Brightness Sun altitude
Exits shadow 21:27:45 17° 200° (SSW) 1,499 4.7 -18.1°
Maximum altitude 21:30:54 65° 279° (W) 657 3.3 -18.5°
Drops below altitude 10° 21:35:09 10° 2° (N) 1,936 6.3 -19.0°
Sets 21:37:23 0° 5° (N) 2,840 7.2 -19.2°
